Wind_Speed
10 4 4 5 6 8 9 11 8 8 12 10 8 6 5 5 3 4 2 5 6 6 5 5 4 7 10 8 10 17 16 13 17 19 23 26 27 25 24 27 24 23 27 24 23 25 25 26 24 24 23 22 23 22 22 21 21 23 22 19 18 20 20 18 19 20 21 20 17 16 18 16 15 15 15 13 11 7 7 9 9 10 11 11 11 9
10 4 5 8 9 11 11 12 9 12 14 11 8 6 5 4 4 2 1 3 2 3 4 3 3 6 5 5 10 15 12 11 15 14 19 26 27 24 25 28 23 22 27 24 24 27 27 27 24 25 24 23 24 24 22 22 22 23 21 18 17 18 20 19 20 20 21 21 18 18 17 16 15 14 13 12 11 8 7 9 9 9 10 10 9 8
6 4 7 10 10 12 11 11 8 13 14 9 7 6 4 3 5 5 0 3 3 2 2 2 2 2 3 3 3 4 4 7 8 6 12 25 30 25 25 30 25 22 28 25 25 28 27 26 25 25 24 24 26 25 23 22 22 21 20 18 16 18 20 20 21 19 20 20 19 19 17 16 15 13 12 11 12 11 8 8 9 9 9 9 8 8
4 5 10 12 10 10 10 11 9 9 10 7 7 5 4 5 5 3 3 6 5 1 4 3 1 1 2 3 3 4 5 3 1 3 4 20 29 26 26 31 27 24 29 27 26 27 28 27 26 26 25 26 26 25 24 23 21 20 19 19 17 19 20 20 19 18 19 19 18 18 18 16 14 13 13 12 13 12 9 8 9 10 9 9 8 8
5 9 14 13 11 10 9 11 9 6 7 6 8 4 5 7 3 4 6 7 5 3 6 6 2 1 2 2 2 4 6 6 4 6 5 11 23 25 26 31 27 25 29 29 27 27 29 29 27 26 26 26 25 25 26 23 22 21 20 19 18 19 20 19 18 17 18 18 17 18 19 18 15 14 14 14 13 11 10 9 9 10 9 9 9 8
7 10 14 13 10 10 8 9 6 7 8 5 6 6 9 9 7 11 10 7 4 3 6 5 2 2 2 2 3 2 2 5 5 6 8 7 16 20 24 31 28 25 29 29 27 27 29 30 27 26 27 25 25 26 26 24 23 22 22 20 18 19 20 18 18 17 17 18 17 18 19 18 16 15 15 13 12 10 9 9 8 9 9 9 9 8
5 9 6 9 11 11 10 7 2 8 8 3 5 11 12 11 11 14 13 6 2 2 4 3 1 2 2 3 6 3 2 4 5 5 10 9 12 14 18 30 30 26 30 28 26 28 29 30 28 28 27 25 25 26 25 24 23 21 22 21 19 20 20 18 17 16 16 16 15 15 16 16 14 14 14 12 10 9 9 8 8 9 9 8 8 7
4 9 9 6 10 10 8 5 5 8 6 3 8 14 15 14 13 13 9 5 3 3 3 1 2 1 2 4 7 6 5 4 6 5 8 12 14 14 14 26 31 28 30 29 27 28 29 30 29 29 27 24 23 24 24 23 23 21 21 22 20 19 20 18 16 15 15 15 15 15 15 15 14 13 13 11 11 11 10 9 7 8 10 9 8 7
7 8 9 9 5 5 6 4 9 10 5 3 10 14 14 14 16 13 7 5 3 4 3 4 3 1 2 3 6 7 6 6 8 7 9 13 17 18 16 21 28 29 30 30 28 28 30 31 29 27 26 24 23 24 23 23 24 22 20 22 21 19 19 18 17 16 14 15 17 16 16 16 14 14 13 12 12 12 11 11 9 8 10 10 9 8
3 6 8 6 2 3 5 7 12 11 6 7 13 13 10 11 12 10 6 5 4 3 4 8 7 1 1 3 6 7 7 9 9 8 11 16 20 23 21 20 24 28 30 30 29 29 30 30 28 27 26 24 23 23 23 23 25 23 20 22 22 20 20 19 18 18 16 16 16 15 15 15 15 15 15 13 13 13 12 12 10 9 10 10 9 8
5 8 8 3 1 5 3 6 12 13 12 11 12 10 9 5 4 5 3 4 3 0 2 8 11 5 2 3 6 8 8 10 10 8 11 16 21 24 26 23 22 26 30 29 28 28 30 30 27 27 26 25 25 24 24 24 25 23 20 22 23 20 19 19 19 19 18 17 16 15 15 15 16 16 16 16 14 14 14 13 11 10 9 9 9 8
7 5 2 3 3 6 6 2 5 13 17 11 7 9 8 4 4 4 4 2 1 1 2 2 8 6 4 3 6 9 8 8 11 11 11 16 21 25 29 29 23 23 29 31 28 27 30 30 28 28 26 25 27 26 25 26 25 23 21 21 23 22 20 19 20 19 18 18 17 16 16 16 15 15 17 16 13 13 14 13 11 10 9 9 9 9
5 2 2 3 2 4 6 3 1 8 12 8 5 7 6 2 1 2 1 0 1 2 0 2 5 5 5 3 5 10 10 10 13 15 15 19 25 27 30 33 27 21 26 31 30 27 30 32 30 29 27 27 29 27 27 29 27 24 22 22 24 24 21 19 19 19 19 18 18 17 17 16 14 14 16 14 11 11 11 11 10 10 10 9 8 9
2 0 4 3 3 6 8 1 1 3 6 7 5 5 4 3 3 1 1 1 0 1 2 1 5 4 4 2 3 7 10 14 18 20 21 24 27 30 32 33 30 23 25 31 32 28 30 33 32 30 28 28 30 29 28 29 28 25 23 23 24 24 22 20 19 20 19 18 18 17 16 16 14 13 14 13 11 12 11 11 10 9 9 8 7 7
1 1 6 5 5 9 10 5 4 4 4 6 5 5 4 3 4 3 3 2 1 1 2 2 4 3 2 2 2 3 6 13 21 23 24 27 29 31 31 30 29 26 24 29 33 31 30 32 32 31 29 28 29 30 30 29 27 25 23 24 25 24 23 21 20 20 19 18 17 16 16 16 14 12 12 13 12 12 12 11 9 8 8 8 7 8
4 2 5 8 11 12 10 8 8 6 3 4 5 4 4 5 5 3 3 4 3 1 2 2 2 2 2 5 6 5 6 6 18 23 23 26 30 31 29 28 28 27 25 28 32 31 31 31 31 31 31 29 28 30 30 29 27 25 24 23 24 25 23 21 21 20 19 18 17 16 16 15 14 13 12 13 12 12 11 9 9 8 8 7 8 9
2 5 6 6 11 10 10 9 8 7 3 1 4 4 4 5 7 4 2 3 2 1 1 1 2 1 1 5 5 4 5 2 8 16 20 24 28 30 30 30 29 28 27 29 31 31 32 32 30 30 32 31 29 29 29 30 28 26 24 23 24 25 24 21 20 20 19 18 17 16 15 15 14 14 14 13 12 11 11 9 8 8 8 7 7 8
2 4 9 4 10 10 11 10 9 5 6 3 4 5 4 3 5 3 3 2 2 1 0 2 2 1 1 3 3 3 4 3 2 7 16 22 26 28 30 31 31 30 28 30 33 32 32 32 31 31 31 32 31 29 28 29 28 27 24 22 23 25 25 22 20 20 20 19 18 16 16 15 15 14 14 13 12 11 10 9 8 8 8 8 6 6
1 3 7 6 9 9 9 5 7 7 5 5 3 2 4 3 2 2 2 3 3 1 0 3 3 2 2 3 3 4 6 5 3 4 9 16 21 25 28 31 32 30 27 29 32 32 31 32 32 32 32 32 31 29 29 27 26 26 25 22 23 24 23 22 20 19 19 19 18 17 15 15 15 14 14 13 13 13 12 11 10 10 8 8 7 7
2 1 4 6 3 6 6 2 2 5 8 7 3 1 3 4 3 2 1 2 3 2 2 1 3 2 3 3 4 7 7 6 5 4 3 11 20 23 25 29 32 30 26 27 28 26 29 31 29 30 33 32 30 29 29 27 25 25 25 22 21 23 23 22 21 19 19 19 18 17 16 15 15 14 14 13 13 13 13 13 12 10 8 7 7 7
4 2 3 6 6 1 5 3 4 5 4 4 2 2 2 3 3 3 1 2 4 3 3 2 1 4 4 3 5 7 6 5 6 4 2 6 16 22 25 28 29 23 18 24 27 23 26 29 26 27 31 30 30 29 28 28 27 25 25 22 20 22 23 23 22 20 19 19 18 17 16 16 16 15 14 13 11 11 12 12 11 9 8 7 5 5
3 2 3 5 6 3 1 2 4 5 5 5 3 3 3 3 4 3 1 3 3 4 4 3 2 4 3 1 2 4 5 5 6 6 3 5 9 19 25 24 22 18 16 24 30 27 26 26 25 27 30 28 29 30 28 29 28 25 25 22 19 21 23 23 22 21 19 18 18 17 15 15 16 16 15 13 12 10 11 13 12 10 9 8 7 7
4 1 3 5 4 6 9 10 9 8 7 6 5 4 4 3 5 4 3 5 4 4 4 2 1 2 1 0 2 4 4 4 4 3 5 6 6 10 16 21 24 27 28 26 27 29 29 25 23 27 29 27 28 29 28 29 28 25 23 21 19 20 22 22 21 20 18 17 18 18 17 16 16 17 18 17 15 13 12 12 11 10 10 10 9 8
7 1 2 5 5 6 9 9 9 9 7 3 3 5 5 4 4 5 4 3 3 4 4 3 2 3 2 2 5 7 6 5 4 4 2 3 9 7 7 20 27 29 28 25 25 29 33 29 25 28 29 28 28 28 29 30 29 26 23 21 22 22 21 21 22 21 19 16 16 18 18 17 15 16 18 19 17 15 13 12 10 10 11 11 11 9
5 2 2 4 4 5 7 6 6 4 3 4 3 5 8 9 8 6 4 2 2 5 7 6 2 2 2 2 3 6 5 4 7 7 6 7 13 9 7 16 22 24 24 24 26 28 31 31 29 29 30 31 31 30 30 30 28 27 27 24 24 24 22 23 23 23 21 18 16 17 18 17 16 16 17 17 17 15 13 12 11 11 11 11 11 11
2 3 3 2 2 2 2 2 3 3 3 6 7 7 8 11 10 6 3 2 1 4 5 4 3 3 4 3 3 3 2 4 6 8 10 12 15 12 12 11 13 21 24 24 26 28 30 31 30 29 30 32 32 30 30 30 28 28 29 26 25 26 25 25 23 22 21 20 19 19 18 18 18 18 18 18 18 17 14 13 12 11 11 10 10 10
2 2 3 3 4 3 3 4 6 6 5 7 11 12 11 12 12 7 1 1 3 2 2 1 8 9 6 4 5 4 4 5 5 7 10 14 16 15 16 12 9 15 22 24 25 28 32 32 28 27 29 30 30 29 28 29 29 29 28 26 25 26 27 26 24 22 21 21 21 21 21 20 20 20 19 19 20 19 18 17 15 14 13 12 12 11
1 2 5 6 5 5 6 7 10 10 7 9 11 11 11 10 8 7 4 4 5 7 4 2 11 11 5 5 6 5 4 6 7 8 10 11 15 15 13 11 7 8 16 21 23 26 31 31 28 28 30 29 28 28 27 28 28 28 28 27 25 25 27 28 27 25 24 22 22 23 22 19 18 17 17 17 18 19 19 20 20 18 15 14 13 13
1 2 5 7 7 8 9 8 9 9 9 9 8 12 15 16 14 7 4 3 3 8 8 9 13 11 8 7 5 3 7 10 11 12 11 11 15 15 13 13 9 6 10 14 15 17 22 25 25 27 30 28 28 28 27 27 26 25 26 26 24 23 22 24 26 26 25 24 22 22 21 19 17 16 15 15 16 17 19 20 20 21 19 16 15 15
2 2 5 7 8 9 10 9 8 7 9 10 13 17 15 16 18 17 14 11 7 9 11 11 12 8 4 4 6 9 15 18 17 17 14 11 12 14 15 15 13 10 8 10 13 16 18 20 19 21 24 25 25 26 25 26 26 25 25 24 22 20 19 21 24 25 25 24 21 20 20 21 21 20 18 17 17 17 18 19 19 21 23 20 17 16
3 0 4 5 6 8 9 9 6 6 10 14 16 17 16 16 17 17 15 12 9 10 12 12 11 6 4 6 10 13 19 20 18 17 16 12 10 14 15 13 15 16 14 14 16 18 20 21 19 17 17 17 17 18 21 24 25 24 24 22 20 20 20 21 22 22 23 22 20 19 21 21 22 22 21 20 20 19 19 19 19 19 21 23 21 20
2 0 2 1 3 6 9 7 7 7 10 14 15 16 15 14 13 12 12 11 8 7 8 9 7 4 5 8 11 12 16 17 14 12 14 14 14 16 16 12 14 18 18 18 20 19 19 20 19 17 15 13 14 16 17 19 20 20 20 20 18 18 19 20 21 21 20 19 19 20 21 19 19 20 21 21 22 21 21 21 21 19 18 21 22 22
1 1 0 2 2 5 8 8 10 8 6 8 9 10 11 11 11 12 12 14 12 7 3 4 3 2 4 7 10 12 14 14 12 10 12 16 19 19 17 13 13 15 18 21 22 21 19 18 17 16 16 15 15 15 15 15 15 15 17 18 16 15 15 14 15 16 16 15 17 18 17 16 16 19 21 22 23 23 23 23 23 22 20 20 22 23
2 1 2 2 0 4 8 7 7 5 5 2 5 4 8 10 13 14 12 13 13 7 3 3 5 6 7 9 11 12 13 15 16 15 14 16 21 21 18 14 12 14 16 18 20 20 20 20 17 16 16 15 14 14 15 15 15 14 14 15 15 15 14 14 14 13 13 14 16 17 17 16 16 17 19 20 21 22 22 23 24 25 24 23 24 24
1 1 3 1 0 2 5 5 4 3 2 2 4 4 7 7 10 13 12 13 11 6 4 7 10 11 12 14 16 18 18 19 20 19 16 17 20 22 20 17 16 17 18 19 21 22 22 21 18 15 14 13 12 11 11 12 12 11 11 12 12 13 14 14 15 15 16 18 19 19 19 18 18 18 18 19 19 20 22 24 26 26 26 26 26 26
2 2 2 2 1 1 3 4 2 2 1 3 4 5 7 5 5 8 9 11 10 4 3 7 10 11 12 16 19 20 21 22 20 17 16 15 15 17 19 19 19 19 19 19 19 19 18 16 12 9 8 8 9 9 8 9 9 9 9 9 10 12 13 12 12 13 15 16 17 18 19 20 20 20 20 20 20 21 22 24 25 27 27 28 28 28
4 2 2 2 2 2 2 3 1 2 1 5 5 5 6 6 4 5 5 6 7 6 5 6 8 9 10 13 15 19 23 24 18 16 17 17 17 17 18 18 17 17 17 16 15 14 13 11 8 7 6 7 7 7 8 8 9 10 11 12 13 14 14 13 11 11 12 13 14 15 17 18 19 20 20 20 20 21 21 21 21 22 22 23 25 26
4 3 3 3 1 2 4 2 2 1 2 2 4 9 10 9 9 6 4 3 5 7 9 8 7 9 9 9 12 16 17 15 7 9 16 19 18 18 18 16 14 14 15 14 14 15 14 12 11 11 10 10 10 9 9 10 11 12 12 12 12 12 11 10 9 9 10 11 13 14 15 16 18 18 19 19 19 19 19 18 18 19 20 21 22 23
5 5 4 4 2 3 5 2 0 1 3 4 6 10 10 13 15 11 4 2 5 6 9 11 9 9 8 8 11 14 11 6 1 3 13 17 15 16 17 16 15 13 11 12 15 17 18 17 16 15 14 14 14 13 12 12 12 12 11 10 8 7 7 6 7 7 8 9 9 10 11 12 13 14 14 14 14 14 14 14 15 17 19 20 21 21
4 4 3 1 2 3 5 3 1 0 2 5 7 9 8 13 14 9 2 1 2 4 9 12 12 12 10 11 11 8 5 4 6 9 14 15 12 12 13 14 14 12 11 14 17 18 19 18 16 15 15 14 13 13 12 12 12 12 11 11 9 8 7 7 6 6 6 6 6 5 6 7 8 9 9 7 6 7 10 11 11 12 12 12 13 15
2 3 3 3 2 3 3 3 2 1 2 5 8 11 7 7 8 4 2 3 3 7 10 12 13 12 9 9 8 7 6 11 15 16 15 14 12 13 13 13 14 14 14 15 16 16 15 15 15 15 14 13 11 10 10 10 11 11 11 11 10 10 9 8 7 6 6 6 5 4 4 4 4 4 5 5 7 7 8 6 5 5 4 4 4 4
2 2 2 2 2 1 0 2 3 0 2 4 9 11 6 3 2 2 3 4 8 11 12 13 13 11 9 8 10 13 14 16 16 16 16 17 17 17 16 14 15 16 15 14 13 14 15 15 15 15 13 11 10 9 10 11 12 12 12 12 11 11 10 9 7 6 6 6 6 6 6 6 6 6 7 8 9 8 7 5 2 2 3 3 2 2
2 2 1 1 1 2 1 2 3 0 4 5 6 6 6 4 6 8 10 10 12 14 15 16 14 12 12 13 15 17 18 16 14 13 16 17 17 17 17 15 15 16 15 13 13 14 16 16 15 14 12 11 10 11 11 11 12 13 13 13 12 12 11 10 10 9 8 8 8 8 9 9 9 8 7 7 6 5 4 2 1 4 7 9 8 8
0 1 3 3 2 2 2 1 2 2 1 5 6 5 6 7 11 16 17 13 12 13 14 16 15 14 15 16 16 17 17 16 14 12 13 17 17 16 16 15 14 16 16 15 14 14 14 14 12 10 9 9 10 10 9 9 10 11 12 13 12 11 10 10 10 10 11 11 11 11 11 10 10 10 9 9 8 5 3 3 4 4 6 9 12 12
2 2 5 3 1 2 3 3 5 6 9 15 17 15 15 16 16 18 18 16 13 12 13 14 13 13 15 16 16 16 16 15 13 10 11 17 17 15 14 12 12 16 18 16 15 13 12 10 8 8 8 9 9 9 9 8 8 9 10 10 10 10 10 10 9 8 9 10 11 13 13 12 11 10 9 8 8 7 6 5 4 4 5 7 10 11
4 10 10 5 3 5 7 8 10 11 14 19 21 20 20 21 20 19 18 16 14 12 13 13 12 12 15 15 15 15 14 13 11 9 10 13 14 14 15 13 12 15 16 14 13 12 10 7 7 9 11 10 9 9 9 9 8 8 9 9 9 10 11 11 10 9 9 10 10 12 13 13 11 9 7 6 7 6 5 4 3 3 4 5 8 9
8 11 9 4 4 5 5 7 10 12 15 18 20 20 20 19 19 18 18 17 15 14 13 13 11 11 11 11 12 14 13 11 11 11 12 12 12 14 16 16 14 14 14 12 11 11 10 8 6 8 10 9 9 9 9 9 9 8 9 9 9 11 12 12 11 10 10 10 11 11 12 11 9 7 5 4 4 4 2 1 1 4 4 4 6 7
7 9 5 4 5 4 5 9 14 16 17 17 17 17 17 17 16 16 16 15 15 15 14 13 12 10 9 9 11 13 13 10 10 13 14 13 12 14 15 16 16 14 12 10 9 10 9 7 5 7 8 7 7 7 8 9 9 8 9 9 8 9 11 13 12 10 8 9 10 10 8 7 4 4 3 2 2 2 1 1 1 3 3 4 5 6
6 7 5 5 6 5 6 12 16 14 14 16 17 16 15 16 17 17 17 15 15 15 16 15 14 12 10 9 10 11 12 11 10 11 12 11 11 13 13 15 16 14 12 10 9 10 10 6 4 6 5 5 6 6 6 7 8 8 8 8 7 7 9 11 11 7 4 6 7 5 4 4 4 4 3 2 2 2 2 2 1 1 1 0 2 4
5 5 5 6 5 3 5 10 12 9 8 13 17 16 14 16 17 17 16 16 15 16 15 14 15 15 14 11 8 8 10 11 10 9 10 10 10 11 12 12 13 14 12 11 10 11 10 7 5 6 5 5 6 6 6 6 7 7 7 6 6 6 8 9 10 8 6 6 6 5 4 3 3 5 5 4 3 3 4 5 5 5 4 4 4 5
7 5 6 7 5 5 9 14 16 15 14 15 18 17 15 16 17 16 15 14 14 15 15 14 14 15 15 14 12 9 8 7 7 9 12 11 9 10 10 10 10 11 11 10 9 10 10 8 7 7 6 5 4 4 5 4 4 4 5 4 4 4 5 6 7 6 6 7 6 5 5 4 4 6 7 7 6 4 4 4 4 3 4 4 4 4
Wind_Direction
198 189 192 209 227 229 217 221 217 145 135 125 113 107 130 143 163 227 166 142 153 126 164 188 163 177 169 167 178 184 195 193 184 172 157 156 160 169 161 161 176 165 157 162 157 154 153 156 157 154 156 155 154 159 160 162 163 167 172 174 171 164 163 163 157 153 148 147 156 156 155 167 169 170 172 165 170 171 150 159 162 156 157 158 162 162
195 202 216 213 220 233 232 225 194 139 131 123 115 113 129 155 144 141 81 117 62 60 163 183 163 182 175 171 180 180 191 202 194 176 159 154 162 175 161 162 181 164 157 164 157 155 155 156 158 157 158 159 161 161 161 166 168 175 180 177 171 164 163 162 158 156 153 155 163 162 165 171 163 164 173 171 174 175 161 160 157 157 158 154 155 157
190 223 232 223 220 230 241 247 208 142 131 123 122 126 132 147 109 88 16 127 68 32 124 103 147 171 332 303 215 181 206 210 194 182 166 156 164 181 164 163 181 166 158 166 159 156 158 158 160 162 162 164 169 165 163 169 173 179 182 176 169 161 160 161 163 165 160 163 169 167 172 174 163 162 171 173 170 169 165 159 158 158 155 152 150 148
185 216 228 237 237 229 235 249 233 141 128 135 131 128 144 156 134 126 200 150 111 84 129 110 93 97 332 296 297 308 306 293 301 316 210 161 167 181 168 165 180 172 163 167 164 160 160 160 162 165 167 169 172 169 169 175 176 178 178 175 169 162 161 163 168 169 164 168 172 170 176 180 171 163 164 168 168 168 166 165 162 157 154 152 150 148
214 209 204 221 247 243 238 243 235 142 125 124 109 111 156 161 148 112 142 141 112 93 137 137 121 203 202 190 255 294 310 314 314 300 271 173 173 181 170 167 179 177 167 167 168 165 162 162 163 167 171 173 173 171 173 179 179 177 177 176 172 166 165 167 172 170 166 173 175 172 176 180 176 164 159 161 163 162 158 164 162 155 158 154 152 155
244 234 195 194 232 246 246 245 228 136 123 99 112 157 159 148 124 115 131 142 118 135 168 164 147 185 206 199 220 249 321 299 300 283 274 219 184 187 174 168 177 178 167 168 172 169 166 165 165 168 173 175 174 173 176 179 179 179 181 180 175 172 170 174 178 173 171 174 173 174 174 174 173 165 159 160 162 158 153 160 158 158 164 154 155 162
251 269 226 190 209 224 243 246 169 113 116 109 163 164 147 137 130 133 145 149 117 143 173 198 176 138 172 216 226 207 164 259 277 256 264 253 205 202 182 167 174 177 168 172 177 172 169 167 167 171 174 178 178 178 179 177 179 184 184 181 178 173 172 178 181 178 177 173 169 172 168 165 166 162 158 159 167 166 160 159 152 161 165 152 160 173
234 272 288 257 209 202 233 229 125 106 105 135 160 148 140 137 135 140 142 123 98 96 100 243 264 115 178 198 207 195 168 227 259 239 249 248 218 216 203 173 174 178 171 176 181 176 174 171 172 174 175 180 181 180 181 178 182 191 187 182 182 176 174 180 182 182 183 176 169 166 164 163 161 159 157 160 168 168 164 164 161 167 165 158 170 176
204 229 255 265 234 195 220 183 125 110 96 167 161 147 148 143 137 140 132 104 114 120 131 232 244 251 210 164 164 180 185 206 229 226 226 234 220 217 217 183 175 179 175 179 183 179 178 175 175 176 176 179 180 181 183 181 186 195 192 186 184 180 178 179 180 182 184 181 177 170 168 168 163 163 168 170 169 165 169 176 175 171 165 170 177 171
217 266 264 254 238 231 212 144 129 121 106 164 162 147 142 137 131 132 128 108 105 128 185 202 199 198 236 168 159 178 204 209 211 216 214 220 217 215 217 198 182 183 179 180 185 183 181 178 175 176 177 179 182 182 182 185 191 197 195 188 187 186 181 178 178 180 181 182 184 179 174 173 168 169 178 181 175 169 177 184 178 171 169 178 181 170
272 283 295 280 283 312 322 118 139 136 120 141 154 135 111 90 82 85 76 90 100 305 223 194 192 198 249 201 185 190 205 204 196 202 208 210 213 212 213 208 194 189 185 181 184 185 182 179 176 177 179 181 183 182 181 188 195 198 198 190 187 189 185 179 179 180 180 180 184 184 179 177 174 173 177 181 179 174 178 182 178 177 177 180 183 178
275 253 276 247 243 309 330 18 152 140 131 136 148 132 104 32 3 47 33 37 85 263 324 229 201 207 248 228 204 211 207 194 194 200 198 197 205 209 209 209 205 196 190 183 184 187 182 178 178 177 180 183 184 183 182 189 196 198 199 192 186 189 190 182 180 182 181 179 184 186 182 180 179 178 180 180 180 178 179 182 181 180 180 180 182 182
272 260 166 192 176 283 297 324 185 144 142 145 144 144 121 54 319 42 44 203 233 211 242 262 205 209 259 248 206 216 211 198 201 206 201 194 198 204 206 208 207 200 192 186 187 191 183 178 179 178 180 186 186 182 182 189 195 197 198 194 187 189 192 187 182 184 184 182 184 187 184 184 183 182 183 183 182 184 188 191 190 188 187 184 181 181
242 227 177 148 103 240 255 285 162 162 153 148 152 172 149 135 173 150 167 188 226 174 87 118 177 197 275 272 191 211 215 209 205 207 206 201 199 200 203 207 208 204 195 188 190 194 186 180 182 180 181 189 187 181 184 189 194 198 199 197 191 191 194 191 185 186 189 187 185 186 188 189 189 184 180 180 180 183 188 190 191 192 189 184 184 186
276 199 179 159 139 195 222 229 207 188 162 161 164 181 183 172 167 160 169 153 137 191 92 100 171 191 230 272 269 253 247 214 200 201 203 202 202 200 201 206 207 204 196 190 193 197 192 184 184 183 183 189 187 182 186 192 195 199 201 198 193 191 194 191 186 188 193 193 188 187 190 189 192 190 181 180 179 177 181 182 183 183 180 184 191 191
321 281 198 181 165 177 206 222 212 201 186 175 163 172 207 184 140 124 159 152 143 182 159 155 213 215 211 276 281 276 290 220 187 191 192 194 198 196 197 203 204 205 201 194 193 197 195 188 186 186 184 188 189 182 186 193 197 202 202 198 193 191 195 193 188 190 194 195 192 189 190 188 190 189 182 183 180 171 173 177 181 180 178 182 184 185
338 305 298 194 175 190 207 215 220 204 178 187 193 199 209 162 129 112 114 141 151 148 143 188 244 240 263 279 268 258 297 300 177 186 184 184 190 192 195 199 200 203 203 198 196 197 195 190 190 190 186 189 189 183 188 196 200 203 202 199 194 192 196 196 191 191 193 194 192 190 191 188 187 186 183 186 181 170 172 176 179 186 187 186 180 184
149 290 309 232 188 201 200 218 260 227 150 147 211 207 196 132 113 117 106 143 198 185 75 308 274 226 289 268 246 242 257 281 278 197 180 178 185 190 195 198 199 201 202 200 198 196 193 191 193 193 189 191 191 187 191 198 200 202 204 202 197 193 196 196 193 192 193 195 195 192 192 190 188 186 185 188 182 173 175 177 180 194 197 193 195 207
4 315 306 252 197 174 166 199 278 269 222 207 208 178 167 143 115 116 114 164 188 152 95 318 310 250 242 251 228 218 222 229 263 233 182 174 181 188 194 198 198 200 203 198 191 191 192 191 193 194 191 189 189 190 195 200 201 202 203 202 198 196 197 196 194 194 193 195 197 195 194 194 190 186 187 190 187 181 183 186 190 201 202 196 210 225
7 13 299 278 212 141 135 148 254 260 263 256 281 5 152 146 142 143 126 161 147 122 156 298 324 253 230 244 226 214 211 203 210 238 217 181 182 186 190 195 197 201 207 198 186 184 188 188 189 192 191 188 187 191 196 199 200 200 200 201 200 199 197 195 196 197 195 195 197 198 197 196 194 189 189 191 191 191 194 196 197 201 202 201 214 225
27 4 308 312 329 108 154 169 195 208 246 253 275 280 175 114 99 130 193 180 131 125 159 152 247 253 243 227 219 212 202 199 195 195 269 204 186 187 191 195 195 192 194 192 189 185 180 182 184 182 181 183 185 189 193 196 199 197 197 200 201 199 196 194 196 198 199 198 198 201 201 199 197 194 191 189 192 197 202 203 200 194 196 204 217 223
28 346 310 304 325 337 308 289 250 228 219 198 197 251 214 136 107 107 204 212 145 131 147 149 205 258 280 240 207 195 184 206 195 175 238 261 202 194 193 189 184 178 181 189 193 191 178 176 182 179 177 180 184 186 183 185 191 192 193 198 200 200 196 193 195 198 201 200 196 201 208 207 203 198 193 193 201 207 205 204 199 187 191 211 230 236
345 296 301 296 313 325 315 307 293 275 250 209 181 226 245 176 144 145 184 206 176 134 122 112 217 251 282 262 178 163 168 199 197 193 243 261 255 219 185 174 183 194 198 192 189 192 187 178 175 176 180 186 189 188 180 177 180 182 188 195 197 198 196 192 195 198 203 203 197 200 209 212 209 203 198 195 201 209 207 202 198 188 194 216 228 234
344 332 330 321 321 316 308 300 290 277 263 243 179 204 240 237 182 172 186 183 160 149 130 117 233 227 205 203 172 159 163 165 123 75 58 20 356 343 171 177 190 194 192 182 175 184 189 185 177 175 181 186 189 189 182 178 179 181 187 193 194 196 194 192 197 201 208 211 203 201 209 212 208 206 203 198 199 206 204 199 200 198 201 213 220 227
352 336 12 350 328 330 333 328 319 303 305 328 293 224 234 240 225 209 196 117 116 196 167 142 188 217 169 197 165 145 150 140 103 93 115 78 45 52 166 190 189 182 180 181 180 180 183 186 186 184 183 184 188 190 186 184 185 186 188 190 190 191 191 193 199 204 210 211 204 203 208 207 204 207 206 201 202 208 205 199 203 210 213 213 212 219
351 305 356 357 296 320 343 320 311 300 307 316 302 273 256 249 245 234 190 109 154 216 181 138 124 109 110 108 99 105 120 116 96 100 126 107 86 115 177 196 179 173 176 181 184 184 184 186 187 188 187 185 187 191 190 190 190 190 190 191 192 191 191 194 199 200 202 204 202 204 209 209 209 211 209 204 201 202 203 201 205 216 229 232 223 218
346 313 315 268 236 243 249 251 267 269 277 310 311 301 285 263 249 235 195 170 169 119 21 92 130 126 133 140 140 173 166 116 88 84 105 109 109 137 174 181 162 165 170 175 180 182 184 184 182 183 184 184 188 190 191 192 194 193 193 194 197 196 194 197 198 194 194 199 202 206 212 216 217 216 216 211 203 200 200 199 200 207 219 230 232 229
72 317 283 274 262 264 271 270 275 284 290 297 314 329 333 318 277 231 212 216 161 103 59 138 130 124 153 176 161 179 150 92 74 71 77 95 110 124 149 156 145 147 153 162 173 176 177 178 179 181 180 180 185 189 191 194 195 195 196 197 201 203 201 202 203 201 200 204 209 213 216 219 218 218 220 214 207 207 207 201 198 202 206 209 213 216
105 251 281 301 301 295 296 291 289 310 314 303 340 19 20 16 13 7 347 309 155 129 143 155 137 133 162 175 164 120 87 84 84 89 87 87 100 116 135 145 144 126 122 137 150 155 159 162 168 177 179 178 180 184 187 191 192 192 193 197 200 200 201 203 207 208 207 207 210 213 213 209 207 212 218 218 217 221 222 215 207 205 208 207 201 202
49 293 319 317 304 302 307 304 305 343 4 11 24 27 27 35 35 27 20 19 47 106 127 129 124 129 152 148 125 101 97 95 89 91 97 94 100 124 143 145 142 139 139 143 136 132 142 147 146 156 167 171 175 179 181 183 184 185 186 189 191 192 195 200 202 204 206 207 208 211 210 206 202 202 205 210 216 223 229 230 223 214 214 214 207 205
106 32 336 323 320 316 299 292 310 11 44 44 32 22 24 37 39 31 23 20 40 82 98 102 105 98 56 76 103 110 108 104 94 91 99 102 113 131 140 143 143 145 155 166 154 143 147 146 136 136 148 154 157 166 172 174 176 180 182 183 185 189 197 203 204 203 205 208 211 214 218 216 210 207 208 209 212 217 224 231 233 226 220 219 217 215
126 262 316 355 8 318 292 306 345 13 55 50 29 20 24 33 42 40 28 21 27 62 81 85 89 71 40 61 74 78 84 91 96 100 102 104 111 120 125 131 141 142 146 153 153 150 152 154 153 155 161 164 163 168 174 174 176 181 183 182 183 189 197 203 206 207 207 209 211 213 217 218 214 213 216 218 219 223 228 233 237 235 227 225 226 225
209 234 353 35 21 299 301 333 348 352 48 47 16 22 32 35 49 51 37 30 28 31 46 51 49 32 32 56 61 56 57 68 83 95 98 100 106 113 114 117 126 134 140 146 148 148 153 160 166 170 177 184 187 189 189 188 193 196 194 193 195 198 204 213 216 213 208 208 213 217 219 219 218 216 219 221 222 225 230 233 236 238 236 233 231 229
275 169 96 49 301 291 312 333 348 8 59 20 314 13 51 56 63 60 46 36 34 30 25 42 58 60 54 59 67 66 61 64 77 88 95 102 111 114 110 108 114 119 126 137 140 139 142 146 148 155 167 173 177 187 196 201 209 215 214 217 224 227 232 244 249 241 229 220 220 224 224 224 225 224 224 226 225 226 228 231 234 238 240 241 239 237
338 78 99 86 194 299 325 352 24 45 92 264 294 19 54 69 81 74 55 42 42 42 42 60 71 72 70 70 69 69 70 72 80 91 98 107 118 119 116 119 125 120 118 126 129 129 134 140 139 140 150 159 164 174 187 196 204 213 219 225 232 237 241 244 243 239 235 233 232 234 234 234 235 234 233 234 234 235 235 236 238 241 242 245 245 244
79 94 109 67 5 358 356 9 43 178 234 328 357 33 34 27 64 75 48 29 33 47 49 64 75 75 77 79 79 81 80 74 69 73 86 105 121 123 122 128 132 131 132 136 136 135 138 143 144 145 157 176 188 192 197 201 206 214 223 225 229 237 240 241 240 236 234 233 233 235 236 236 237 237 238 239 239 240 242 242 243 244 245 247 249 250
103 105 108 76 31 85 88 359 327 188 304 357 8 6 5 13 44 83 72 27 22 42 60 71 77 74 69 68 79 91 87 75 56 37 55 91 116 120 121 126 127 130 135 138 141 143 143 147 155 163 170 175 182 193 201 204 207 213 222 229 233 237 237 238 241 243 240 236 233 232 233 233 234 236 237 237 237 239 243 247 250 250 250 251 253 254
137 147 146 123 81 99 103 36 346 211 249 308 303 311 339 17 22 19 68 56 1 29 69 85 79 79 80 70 83 98 90 76 52 18 45 75 98 103 107 111 109 113 121 128 134 135 133 137 140 140 143 143 142 153 168 177 187 195 203 212 219 225 228 230 232 236 238 237 235 234 232 231 232 235 235 237 240 244 249 255 258 258 256 255 255 254
105 120 127 127 140 127 116 114 207 225 251 264 278 298 339 18 10 355 27 66 331 12 75 96 95 94 104 109 110 111 97 78 153 105 82 85 87 87 95 101 99 101 111 118 120 121 122 126 130 131 134 136 135 138 145 153 160 165 168 172 177 187 196 199 203 210 218 222 226 230 230 230 232 233 233 237 243 248 251 254 255 255 256 256 256 254
65 95 96 106 160 140 125 133 152 249 257 243 255 284 339 17 16 12 56 180 306 35 75 95 111 118 124 128 119 104 93 123 142 120 105 102 97 95 100 101 98 105 118 118 114 113 115 115 113 112 111 113 119 125 128 133 137 137 134 131 131 141 150 155 164 176 186 193 201 210 221 228 231 232 230 226 223 224 227 230 234 241 247 253 256 259
53 62 40 23 51 83 101 120 139 231 234 225 256 283 316 24 39 47 184 203 132 94 84 90 110 122 126 127 110 77 92 122 123 119 117 113 107 107 107 104 106 112 115 116 116 113 114 114 111 106 102 99 104 108 113 124 129 125 123 125 127 131 131 132 142 151 155 159 160 160 175 191 199 205 201 184 174 173 171 174 194 219 231 236 248 274
89 50 3 2 55 80 96 95 97 118 244 239 268 294 329 70 120 164 175 140 98 84 74 79 96 107 109 110 105 103 113 119 118 124 131 124 118 120 122 121 123 119 111 108 108 105 105 107 104 104 109 115 117 113 112 115 117 117 122 127 127 126 126 124 125 127 129 135 141 141 137 133 134 140 145 155 167 167 152 136 124 98 87 92 93 65
117 91 100 211 145 133 145 87 91 212 274 269 273 314 12 76 140 125 105 91 80 73 68 72 83 97 107 109 109 114 121 122 119 127 136 130 126 132 136 130 124 123 121 117 108 99 99 102 104 106 114 123 129 131 130 126 122 119 119 118 116 116 119 119 118 118 116 114 117 121 123 122 120 121 126 133 141 152 152 141 83 77 87 91 92 91
235 158 174 198 180 136 141 115 129 174 18 53 83 98 87 104 124 118 107 95 85 80 78 79 85 99 111 117 121 124 127 128 125 126 135 136 131 133 137 128 115 120 126 119 111 111 114 120 125 125 124 127 131 135 135 130 126 123 120 117 116 117 118 117 117 117 111 104 100 100 106 111 111 110 114 113 106 100 87 63 54 74 100 108 108 106
267 128 120 127 127 125 139 147 138 119 80 72 82 94 95 94 102 108 107 101 94 89 89 88 93 107 117 123 130 133 133 136 135 130 134 139 137 136 140 134 121 127 131 126 123 130 138 141 138 128 121 119 119 120 120 115 111 113 115 114 115 120 119 112 108 105 100 100 100 98 99 103 105 104 105 103 104 107 99 88 86 94 108 123 127 122
153 115 100 95 109 100 104 122 122 101 80 76 82 86 87 88 94 99 100 99 98 96 95 93 97 116 127 131 134 135 133 134 136 134 135 138 139 138 139 138 137 140 144 143 137 137 141 141 129 119 117 117 117 119 119 116 113 112 110 108 108 110 107 102 100 97 91 89 92 94 97 99 96 92 94 102 113 121 109 97 119 135 122 129 139 141
147 129 110 114 144 119 106 124 122 107 96 90 88 90 90 90 95 99 99 99 101 100 99 97 96 107 124 136 141 139 137 134 133 135 137 138 144 146 143 142 145 148 152 149 138 136 144 142 124 117 119 117 119 124 124 124 127 126 121 119 119 118 115 110 103 94 88 87 90 93 95 92 85 83 85 90 103 115 107 62 177 168 169 176 170 163
158 148 139 143 141 121 122 140 138 129 121 111 104 104 106 107 110 109 104 103 103 101 100 101 99 99 107 122 134 139 139 134 129 132 134 133 138 145 150 152 151 149 150 144 135 146 161 159 133 132 131 116 110 122 135 143 144 138 131 128 130 134 131 119 101 83 76 84 91 93 94 97 104 107 92 65 60 97 105 40 99 135 160 202 210 203
143 130 127 128 122 108 123 141 140 129 117 112 112 112 111 112 114 111 106 104 103 100 97 96 96 96 100 113 129 136 134 131 130 137 142 140 133 134 146 159 161 159 160 159 161 172 181 178 151 148 145 123 113 121 134 139 132 124 122 124 131 140 136 120 107 98 98 106 112 125 139 147 164 171 163 163 188 217 243 269 306 13 26 277 216 219
121 121 129 131 135 141 149 153 149 132 113 116 120 118 113 109 107 106 107 104 99 100 101 96 92 92 96 104 117 128 132 133 137 147 154 154 146 138 139 151 161 162 162 164 170 181 192 198 183 164 152 138 130 126 127 131 127 121 117 117 124 132 132 129 131 145 170 171 166 181 193 186 183 198 216 232 234 227 238 257 274 283 290 296 286 267
92 107 123 126 132 131 135 145 143 130 121 125 127 124 122 118 111 107 109 110 104 103 105 102 95 91 94 99 102 107 120 128 140 156 158 154 153 153 149 153 165 168 171 180 188 193 202 208 198 179 165 156 147 134 131 142 146 131 119 114 115 124 139 148 149 157 179 195 205 221 240 254 238 217 223 242 257 255 247 254 266 278 293 306 310 295
Height
1493 1500 1503 1504 1502 1497 1494 1491 1491 1494 1497 1504 1511 1518 1523 1526 1527 1524 1522 1521 1521 1532 1539 1534 1535 1535 1530 1528 1527 1527 1529 1529 1531 1533 1534 1537 1540 1542 1544 1546 1549 1550 1552 1555 1556 1556 1558 1560 1562 1564 1566 1568 1570 1572 1573 1574 1575 1576 1577 1578 1579 1580 1581 1583 1584 1585 1586 1588 1589 1590 1591 1592 1593 1594 1595 1596 1596 1597 1597 1598 1599 1600 1601 1602 1602 1603
1493 1502 1502 1497 1493 1490 1487 1485 1486 1492 1496 1502 1510 1518 1523 1524 1526 1525 1523 1523 1523 1530 1538 1535 1535 1536 1532 1530 1527 1527 1529 1529 1530 1532 1534 1536 1539 1542 1543 1546 1548 1549 1552 1554 1556 1556 1558 1560 1562 1564 1566 1567 1569 1571 1573 1574 1575 1577 1577 1578 1579 1580 1582 1583 1584 1585 1586 1588 1589 1590 1591 1592 1593 1594 1595 1596 1597 1597 1597 1598 1599 1600 1601 1602 1603 1603
1498 1500 1495 1488 1485 1484 1484 1482 1484 1490 1494 1501 1509 1516 1525 1524 1525 1530 1527 1525 1528 1532 1539 1538 1537 1539 1538 1536 1530 1528 1530 1530 1531 1532 1534 1535 1537 1541 1542 1545 1548 1549 1551 1553 1555 1556 1557 1559 1562 1564 1565 1567 1568 1570 1572 1574 1575 1576 1577 1579 1580 1581 1582 1583 1584 1585 1586 1588 1589 1591 1591 1592 1593 1594 1596 1597 1597 1597 1598 1599 1600 1600 1601 1602 1603 1603
1501 1496 1488 1482 1481 1483 1484 1481 1483 1491 1495 1500 1507 1516 1525 1523 1524 1532 1531 1528 1531 1534 1538 1540 1541 1542 1543 1542 1534 1530 1532 1531 1531 1532 1533 1535 1536 1539 1541 1543 1546 1548 1549 1552 1554 1555 1557 1559 1561 1563 1565 1566 1567 1570 1572 1573 1574 1576 1577 1578 1580 1581 1583 1583 1584 1586 1587 1588 1589 1591 1592 1592 1593 1594 1596 1597 1597 1598 1598 1599 1600 1601 1602 1602 1603 1603
1494 1485 1479 1480 1480 1482 1485 1483 1482 1492 1500 1501 1506 1516 1522 1520 1520 1525 1528 1529 1532 1536 1538 1540 1547 1547 1543 1544 1541 1534 1533 1532 1532 1532 1532 1534 1536 1538 1540 1542 1545 1547 1548 1551 1554 1555 1556 1558 1560 1563 1564 1565 1567 1569 1570 1572 1573 1575 1576 1578 1579 1581 1582 1583 1584 1586 1587 1588 1589 1590 1592 1592 1593 1595 1596 1597 1597 1598 1599 1600 1601 1601 1602 1603 1603 1604
1486 1476 1474 1479 1481 1481 1484 1484 1481 1489 1501 1505 1507 1511 1515 1517 1518 1522 1528 1531 1537 1544 1539 1538 1552 1554 1542 1543 1545 1539 1536 1534 1533 1533 1532 1534 1535 1536 1539 1540 1543 1546 1548 1550 1553 1554 1555 1557 1559 1562 1564 1565 1567 1568 1570 1571 1573 1574 1575 1577 1579 1580 1582 1583 1584 1586 1587 1588 1589 1590 1591 1592 1593 1594 1595 1596 1597 1598 1599 1600 1601 1602 1602 1603 1604 1604
1480 1473 1472 1478 1481 1481 1483 1484 1479 1483 1499 1509 1506 1503 1509 1514 1518 1524 1526 1530 1540 1544 1537 1535 1549 1556 1548 1545 1544 1540 1539 1537 1534 1533 1533 1534 1534 1535 1538 1539 1541 1545 1547 1549 1552 1553 1554 1556 1558 1560 1563 1564 1566 1568 1569 1571 1572 1573 1575 1576 1578 1580 1581 1583 1584 1585 1587 1588 1589 1590 1591 1592 1593 1594 1595 1596 1597 1598 1599 1600 1601 1602 1602 1603 1604 1604
1477 1475 1476 1476 1478 1482 1484 1485 1479 1479 1496 1508 1501 1500 1508 1513 1518 1523 1523 1528 1535 1537 1538 1537 1541 1551 1552 1546 1539 1538 1541 1540 1536 1533 1533 1533 1533 1534 1536 1538 1539 1542 1545 1547 1550 1552 1553 1555 1556 1559 1561 1563 1566 1568 1569 1571 1572 1573 1574 1576 1577 1579 1581 1582 1584 1585 1586 1588 1589 1590 1591 1592 1593 1594 1595 1596 1597 1598 1599 1599 1600 1601 1602 1603 1603 1604
1473 1476 1478 1475 1477 1482 1481 1479 1475 1478 1493 1501 1496 1499 1505 1508 1513 1518 1523 1530 1532 1537 1549 1545 1540 1550 1552 1541 1535 1536 1540 1541 1537 1534 1532 1532 1532 1532 1535 1536 1538 1541 1543 1545 1548 1551 1552 1553 1556 1558 1560 1563 1565 1567 1569 1570 1571 1572 1574 1575 1577 1579 1580 1582 1583 1585 1586 1587 1589 1589 1590 1592 1593 1594 1595 1596 1597 1598 1598 1599 1600 1601 1601 1602 1603 1604
1472 1474 1473 1472 1477 1479 1474 1471 1471 1477 1489 1492 1492 1498 1504 1507 1510 1515 1524 1531 1534 1543 1552 1545 1540 1550 1551 1541 1538 1539 1538 1537 1534 1531 1529 1530 1531 1531 1533 1535 1537 1539 1542 1544 1547 1549 1551 1552 1555 1557 1560 1563 1564 1566 1568 1570 1570 1572 1573 1575 1576 1578 1580 1581 1583 1584 1585 1587 1588 1589 1590 1591 1592 1593 1594 1595 1597 1598 1598 1599 1600 1600 1601 1602 1603 1604
1471 1470 1469 1468 1472 1472 1467 1468 1469 1473 1480 1487 1495 1501 1511 1518 1516 1520 1526 1530 1543 1552 1546 1538 1535 1543 1549 1541 1535 1533 1528 1526 1528 1529 1527 1528 1529 1530 1531 1533 1536 1538 1540 1542 1545 1548 1550 1551 1553 1556 1559 1562 1563 1565 1567 1569 1570 1571 1573 1574 1576 1577 1579 1580 1582 1584 1585 1586 1587 1588 1590 1590 1591 1592 1593 1595 1596 1597 1598 1599 1600 1600 1601 1602 1603 1603
1472 1472 1471 1466 1467 1467 1467 1470 1472 1472 1473 1485 1498 1504 1522 1536 1530 1531 1537 1538 1554 1559 1545 1536 1532 1539 1549 1539 1527 1523 1518 1518 1521 1523 1523 1524 1527 1528 1530 1531 1534 1537 1538 1540 1543 1546 1548 1550 1552 1554 1557 1560 1562 1564 1566 1567 1568 1570 1572 1574 1575 1576 1578 1580 1581 1583 1585 1586 1587 1588 1589 1590 1591 1592 1593 1594 1595 1597 1598 1599 1600 1600 1601 1602 1603 1603
1477 1475 1471 1467 1467 1467 1472 1478 1478 1477 1475 1483 1495 1502 1526 1551 1549 1548 1553 1550 1556 1554 1541 1536 1536 1543 1544 1528 1518 1518 1515 1515 1516 1516 1519 1520 1523 1525 1527 1530 1532 1535 1537 1538 1541 1544 1545 1547 1549 1552 1555 1558 1560 1562 1564 1565 1566 1569 1571 1573 1574 1576 1577 1579 1581 1582 1584 1585 1586 1588 1589 1590 1591 1592 1593 1594 1595 1596 1597 1599 1600 1600 1601 1601 1602 1603
1486 1480 1472 1472 1474 1468 1473 1484 1487 1485 1482 1486 1494 1500 1519 1545 1556 1560 1559 1553 1553 1548 1537 1534 1539 1546 1540 1521 1514 1513 1511 1512 1512 1514 1518 1518 1520 1523 1525 1528 1530 1533 1535 1537 1539 1542 1543 1545 1547 1550 1554 1557 1558 1560 1562 1563 1565 1567 1569 1571 1573 1575 1576 1578 1580 1582 1583 1585 1586 1587 1589 1590 1591 1592 1593 1594 1595 1596 1597 1598 1599 1600 1600 1601 1602 1603
1495 1495 1481 1475 1477 1472 1471 1479 1482 1481 1482 1485 1486 1491 1504 1519 1532 1546 1552 1552 1552 1548 1540 1539 1543 1544 1537 1521 1511 1509 1508 1507 1509 1512 1515 1517 1519 1522 1524 1527 1529 1531 1533 1535 1537 1540 1542 1544 1546 1549 1552 1555 1557 1558 1560 1561 1563 1566 1568 1570 1572 1574 1575 1577 1579 1581 1582 1584 1585 1586 1588 1589 1591 1592 1593 1594 1595 1596 1597 1598 1599 1599 1599 1600 1601 1602
1495 1494 1476 1467 1468 1468 1471 1472 1470 1476 1484 1482 1478 1488 1498 1498 1504 1523 1534 1534 1540 1546 1543 1541 1539 1531 1524 1516 1507 1507 1507 1503 1505 1508 1510 1514 1517 1519 1523 1525 1526 1529 1531 1533 1535 1537 1540 1543 1545 1548 1550 1554 1556 1557 1559 1560 1561 1564 1566 1569 1571 1572 1574 1576 1578 1580 1581 1583 1585 1586 1587 1588 1590 1591 1593 1594 1595 1595 1596 1597 1598 1599 1599 1600 1601 1602
1497 1491 1470 1464 1466 1464 1468 1468 1464 1474 1485 1483 1482 1490 1489 1481 1490 1515 1530 1526 1532 1545 1543 1537 1534 1526 1521 1517 1507 1506 1506 1502 1503 1505 1506 1510 1513 1516 1519 1521 1524 1527 1528 1531 1533 1536 1539 1541 1544 1547 1549 1552 1554 1556 1558 1558 1560 1563 1565 1567 1569 1571 1573 1575 1577 1579 1580 1582 1584 1585 1586 1587 1589 1590 1592 1593 1594 1594 1595 1597 1598 1598 1599 1600 1601 1602
1493 1493 1474 1467 1472 1466 1463 1466 1464 1464 1473 1482 1488 1484 1477 1479 1486 1502 1527 1536 1537 1545 1544 1538 1536 1532 1531 1525 1510 1506 1507 1504 1502 1503 1504 1507 1510 1513 1515 1517 1521 1524 1526 1529 1531 1534 1537 1540 1543 1546 1548 1551 1553 1555 1557 1558 1560 1562 1564 1566 1568 1570 1572 1574 1576 1578 1580 1581 1582 1584 1585 1587 1588 1589 1591 1592 1593 1594 1595 1596 1597 1598 1599 1599 1600 1601
1486 1496 1483 1466 1470 1467 1460 1469 1475 1467 1464 1472 1477 1472 1476 1496 1502 1500 1517 1531 1536 1546 1550 1543 1537 1532 1530 1524 1512 1508 1508 1505 1503 1502 1502 1504 1507 1510 1513 1516 1519 1521 1524 1526 1529 1533 1536 1539 1542 1545 1547 1549 1552 1554 1556 1558 1560 1561 1564 1565 1567 1569 1571 1573 1575 1577 1579 1580 1581 1583 1584 1586 1587 1588 1590 1591 1592 1593 1594 1595 1596 1597 1598 1599 1600 1601
1483 1497 1494 1471 1465 1468 1467 1476 1485 1480 1470 1467 1470 1471 1475 1489 1499 1501 1506 1512 1524 1542 1548 1547 1544 1534 1521 1513 1508 1507 1504 1503 1504 1503 1502 1503 1505 1508 1511 1513 1516 1519 1522 1524 1527 1531 1533 1537 1540 1543 1546 1549 1551 1554 1555 1557 1559 1561 1563 1565 1567 1569 1570 1572 1574 1575 1577 1579 1580 1582 1583 1585 1586 1587 1589 1590 1591 1593 1594 1595 1595 1596 1597 1598 1599 1600
1484 1496 1500 1483 1470 1474 1479 1480 1482 1482 1479 1476 1479 1482 1481 1482 1487 1495 1499 1499 1511 1532 1542 1550 1551 1532 1510 1502 1503 1503 1501 1501 1501 1502 1502 1503 1504 1507 1509 1511 1515 1518 1521 1523 1526 1529 1531 1534 1538 1540 1543 1546 1549 1552 1554 1556 1558 1560 1563 1564 1566 1568 1569 1571 1572 1574 1576 1578 1579 1581 1582 1583 1585 1586 1588 1589 1590 1592 1593 1594 1595 1596 1597 1598 1599 1600
1491 1496 1501 1494 1484 1483 1482 1475 1471 1472 1474 1477 1482 1482 1482 1485 1490 1503 1510 1500 1499 1516 1529 1539 1545 1529 1506 1498 1498 1498 1498 1498 1499 1500 1501 1502 1503 1506 1507 1510 1515 1517 1519 1522 1524 1526 1529 1532 1536 1539 1542 1545 1547 1549 1552 1555 1557 1559 1561 1563 1566 1567 1568 1570 1571 1572 1575 1576 1578 1580 1581 1582 1583 1585 1586 1588 1589 1591 1592 1593 1594 1595 1596 1597 1598 1599
1492 1494 1499 1498 1490 1485 1480 1471 1467 1467 1466 1470 1475 1476 1477 1481 1487 1502 1512 1502 1497 1507 1513 1523 1536 1526 1505 1496 1496 1496 1496 1496 1499 1501 1502 1504 1505 1507 1509 1509 1512 1514 1516 1519 1521 1524 1528 1531 1535 1539 1543 1546 1547 1549 1552 1555 1556 1559 1561 1562 1564 1566 1567 1569 1570 1571 1573 1575 1577 1578 1580 1581 1582 1584 1585 1586 1588 1589 1590 1592 1593 1594 1595 1597 1598 1598
1492 1495 1501 1502 1492 1482 1475 1469 1465 1463 1465 1471 1474 1472 1474 1478 1479 1486 1491 1490 1495 1505 1509 1521 1534 1522 1503 1496 1494 1495 1496 1497 1499 1501 1503 1505 1507 1512 1515 1512 1510 1513 1515 1518 1521 1524 1527 1530 1533 1538 1541 1544 1546 1549 1552 1554 1555 1557 1559 1562 1563 1564 1566 1567 1569 1570 1572 1573 1575 1577 1578 1580 1581 1583 1584 1585 1587 1588 1589 1591 1592 1594 1595 1596 1597 1597
1499 1501 1504 1510 1510 1501 1491 1486 1481 1475 1474 1478 1478 1473 1472 1473 1473 1476 1479 1483 1494 1499 1497 1511 1526 1517 1503 1499 1495 1494 1496 1497 1500 1501 1502 1504 1508 1515 1521 1517 1512 1512 1514 1517 1519 1521 1524 1528 1531 1535 1539 1541 1543 1547 1551 1553 1555 1556 1558 1560 1562 1563 1565 1566 1567 1569 1570 1572 1573 1575 1577 1578 1580 1581 1583 1584 1586 1587 1589 1590 1591 1593 1594 1595 1596 1596
1502 1503 1504 1514 1524 1524 1519 1514 1507 1497 1490 1486 1481 1475 1472 1471 1471 1474 1479 1486 1495 1494 1489 1501 1518 1516 1506 1501 1499 1498 1497 1500 1503 1503 1502 1504 1507 1512 1518 1520 1518 1514 1513 1515 1517 1519 1522 1526 1529 1533 1537 1539 1541 1545 1549 1552 1553 1555 1558 1560 1561 1562 1563 1564 1565 1566 1568 1570 1571 1573 1575 1576 1579 1580 1582 1583 1585 1586 1588 1589 1591 1592 1592 1593 1594 1595
1501 1503 1502 1507 1514 1516 1516 1511 1502 1497 1496 1492 1486 1479 1475 1471 1468 1469 1478 1486 1489 1493 1499 1502 1506 1511 1509 1503 1502 1499 1498 1502 1505 1504 1504 1505 1507 1508 1512 1517 1521 1519 1516 1515 1516 1518 1521 1525 1529 1532 1535 1538 1540 1543 1547 1550 1552 1553 1556 1558 1560 1561 1562 1563 1564 1565 1567 1568 1569 1571 1573 1575 1577 1579 1581 1582 1584 1585 1586 1588 1589 1590 1591 1591 1592 1593
1502 1506 1502 1500 1501 1500 1500 1497 1492 1492 1493 1491 1490 1488 1482 1476 1470 1469 1477 1480 1479 1493 1511 1505 1497 1506 1510 1502 1500 1500 1500 1504 1507 1506 1506 1506 1508 1510 1511 1513 1520 1524 1521 1519 1520 1520 1520 1523 1527 1530 1532 1535 1538 1541 1544 1548 1551 1552 1554 1557 1558 1559 1560 1562 1563 1564 1566 1568 1569 1571 1573 1575 1578 1579 1581 1582 1583 1584 1585 1586 1587 1588 1588 1589 1590 1591
1502 1507 1501 1498 1499 1496 1493 1492 1490 1491 1490 1488 1490 1493 1490 1484 1480 1479 1481 1476 1473 1488 1504 1500 1496 1503 1504 1498 1498 1499 1501 1506 1508 1506 1506 1507 1510 1512 1511 1511 1517 1524 1526 1524 1525 1525 1525 1526 1527 1529 1531 1534 1537 1539 1542 1545 1548 1550 1552 1554 1556 1557 1559 1561 1563 1564 1566 1568 1570 1572 1574 1576 1578 1579 1581 1582 1583 1584 1584 1584 1585 1586 1586 1587 1588 1588
1501 1505 1500 1499 1500 1496 1493 1493 1490 1491 1493 1492 1493 1494 1491 1489 1489 1489 1486 1479 1476 1483 1491 1494 1498 1500 1498 1496 1497 1498 1502 1506 1508 1507 1506 1507 1509 1511 1512 1512 1515 1522 1526 1527 1528 1529 1530 1532 1534 1535 1536 1537 1538 1540 1541 1542 1545 1547 1549 1551 1554 1557 1558 1560 1560 1561 1563 1565 1568 1571 1574 1575 1576 1577 1579 1580 1581 1582 1583 1583 1584 1584 1584 1585 1586 1586
1502 1505 1501 1500 1504 1502 1495 1491 1491 1493 1496 1498 1498 1496 1492 1492 1495 1496 1494 1488 1487 1492 1494 1497 1503 1504 1500 1498 1499 1501 1503 1506 1509 1509 1508 1508 1509 1510 1512 1514 1516 1519 1523 1526 1528 1530 1531 1533 1536 1539 1540 1541 1541 1541 1541 1542 1543 1545 1547 1549 1552 1555 1557 1557 1556 1557 1560 1564 1567 1571 1573 1574 1576 1576 1577 1577 1578 1580 1581 1582 1582 1582 1583 1583 1584 1585
1502 1505 1502 1503 1514 1512 1498 1493 1495 1493 1494 1501 1504 1501 1499 1500 1504 1506 1505 1500 1500 1502 1503 1505 1510 1510 1505 1502 1503 1506 1506 1508 1510 1511 1511 1511 1511 1511 1513 1515 1516 1519 1522 1524 1527 1529 1531 1532 1535 1538 1540 1542 1543 1544 1544 1545 1546 1547 1547 1548 1550 1553 1555 1556 1555 1556 1559 1563 1565 1567 1570 1572 1574 1574 1575 1575 1576 1577 1577 1578 1579 1580 1581 1581 1582 1582
1500 1505 1505 1509 1519 1516 1501 1496 1496 1494 1504 1517 1514 1508 1507 1508 1508 1510 1510 1508 1506 1507 1511 1516 1517 1513 1507 1506 1508 1510 1512 1513 1514 1514 1515 1515 1514 1514 1516 1517 1518 1520 1521 1523 1525 1527 1529 1531 1533 1536 1538 1540 1543 1546 1546 1547 1548 1548 1548 1549 1550 1551 1553 1554 1555 1556 1560 1562 1564 1565 1568 1570 1571 1571 1572 1572 1573 1574 1574 1575 1577 1577 1578 1578 1578 1579
1500 1503 1506 1510 1518 1518 1506 1498 1500 1511 1528 1531 1516 1505 1508 1509 1511 1515 1517 1516 1515 1515 1516 1517 1515 1512 1511 1510 1512 1514 1516 1517 1517 1518 1518 1519 1518 1518 1519 1520 1522 1522 1522 1523 1524 1526 1528 1530 1533 1535 1536 1539 1542 1544 1545 1546 1547 1548 1548 1549 1550 1551 1553 1554 1555 1557 1559 1562 1564 1564 1565 1567 1567 1568 1569 1569 1570 1571 1571 1572 1574 1574 1574 1575 1575 1576
1502 1504 1507 1510 1514 1517 1510 1508 1521 1536 1536 1522 1509 1505 1507 1507 1508 1514 1518 1518 1520 1523 1522 1517 1515 1515 1515 1516 1516 1518 1520 1520 1520 1521 1521 1522 1522 1521 1521 1523 1525 1525 1526 1526 1525 1526 1528 1529 1532 1535 1537 1539 1541 1542 1543 1544 1545 1546 1547 1548 1549 1551 1552 1553 1554 1555 1557 1559 1561 1561 1562 1563 1564 1565 1566 1567 1568 1568 1568 1569 1570 1571 1571 1571 1572 1572
1501 1504 1508 1511 1514 1518 1521 1526 1535 1537 1525 1512 1510 1509 1507 1507 1509 1514 1522 1522 1521 1523 1522 1517 1516 1517 1517 1518 1518 1520 1523 1523 1523 1524 1524 1524 1526 1526 1526 1527 1527 1528 1528 1528 1528 1529 1530 1531 1533 1536 1538 1540 1541 1542 1543 1544 1545 1546 1547 1548 1549 1550 1551 1551 1552 1553 1554 1556 1557 1558 1559 1560 1560 1561 1562 1563 1564 1564 1565 1566 1566 1567 1568 1568 1569 1569
1499 1503 1508 1514 1519 1524 1531 1535 1532 1529 1524 1520 1518 1514 1512 1514 1513 1517 1527 1528 1521 1520 1520 1517 1516 1518 1518 1519 1519 1519 1521 1523 1526 1528 1526 1525 1527 1529 1530 1531 1531 1530 1530 1529 1531 1532 1533 1534 1536 1537 1539 1540 1541 1542 1543 1544 1545 1545 1547 1548 1549 1549 1549 1550 1550 1551 1552 1553 1554 1555 1556 1557 1557 1558 1559 1560 1561 1562 1562 1563 1564 1565 1565 1565 1566 1566
1496 1501 1506 1515 1522 1525 1533 1539 1540 1541 1538 1530 1522 1517 1514 1515 1515 1514 1523 1529 1523 1519 1520 1517 1516 1518 1519 1520 1520 1518 1517 1523 1531 1533 1530 1529 1530 1531 1533 1534 1534 1534 1534 1532 1532 1533 1534 1536 1537 1539 1540 1541 1542 1543 1543 1544 1544 1545 1546 1547 1547 1548 1548 1548 1549 1549 1550 1551 1552 1553 1553 1554 1555 1556 1557 1557 1559 1560 1561 1562 1562 1563 1562 1563 1562 1562
1496 1500 1503 1511 1521 1526 1532 1542 1547 1547 1540 1529 1522 1517 1514 1516 1515 1513 1525 1535 1528 1520 1520 1519 1517 1519 1519 1520 1520 1517 1517 1526 1533 1533 1530 1533 1535 1534 1536 1536 1536 1539 1540 1537 1535 1536 1537 1538 1540 1541 1543 1543 1543 1544 1544 1545 1545 1545 1545 1546 1547 1547 1548 1548 1548 1548 1549 1550 1551 1551 1552 1553 1553 1554 1555 1556 1557 1559 1560 1560 1560 1560 1559 1559 1559 1559
1501 1504 1506 1512 1519 1522 1528 1536 1541 1539 1533 1525 1520 1518 1515 1515 1513 1521 1539 1544 1529 1521 1522 1520 1519 1520 1520 1520 1520 1518 1520 1527 1532 1531 1531 1535 1537 1537 1538 1538 1538 1542 1544 1541 1540 1540 1541 1542 1544 1545 1545 1546 1546 1546 1546 1546 1546 1546 1545 1546 1547 1548 1548 1548 1548 1549 1549 1550 1550 1551 1552 1552 1553 1554 1554 1555 1556 1557 1558 1558 1558 1557 1557 1557 1557 1557
1507 1511 1515 1519 1522 1524 1527 1532 1536 1534 1528 1521 1519 1518 1514 1515 1522 1535 1544 1536 1524 1522 1523 1520 1520 1521 1520 1521 1522 1522 1524 1528 1530 1531 1534 1537 1538 1539 1541 1541 1541 1543 1544 1543 1543 1544 1545 1546 1547 1547 1548 1549 1548 1548 1548 1549 1548 1547 1546 1547 1548 1549 1549 1550 1550 1550 1551 1551 1551 1552 1552 1553 1553 1554 1554 1555 1555 1556 1556 1557 1556 1556 1556 1556 1556 1556
1515 1519 1521 1523 1527 1529 1528 1529 1534 1533 1524 1518 1518 1515 1513 1521 1533 1536 1530 1523 1521 1522 1521 1520 1521 1522 1521 1523 1524 1525 1529 1531 1532 1533 1535 1538 1539 1541 1542 1543 1543 1544 1546 1546 1546 1546 1547 1548 1549 1550 1550 1550 1550 1550 1550 1550 1549 1548 1548 1549 1550 1550 1550 1551 1551 1551 1552 1552 1552 1552 1552 1553 1554 1554 1554 1555 1555 1555 1556 1556 1556 1556 1556 1556 1556 1556
1512 1521 1526 1524 1525 1527 1527 1530 1537 1536 1524 1515 1515 1515 1515 1522 1528 1525 1520 1521 1522 1521 1521 1522 1523 1524 1525 1526 1527 1528 1531 1533 1534 1535 1536 1538 1540 1541 1543 1544 1544 1545 1546 1547 1547 1548 1549 1550 1551 1551 1551 1551 1551 1551 1551 1551 1551 1550 1551 1551 1551 1551 1552 1552 1552 1552 1552 1553 1553 1553 1553 1553 1554 1554 1555 1555 1555 1556 1556 1556 1557 1556 1556 1556 1555 1556
1508 1515 1523 1521 1518 1523 1529 1531 1532 1528 1519 1513 1515 1517 1518 1519 1521 1520 1521 1522 1522 1523 1524 1525 1525 1527 1528 1528 1529 1531 1532 1534 1535 1536 1537 1539 1540 1542 1543 1544 1545 1546 1547 1548 1549 1549 1550 1551 1552 1552 1552 1552 1552 1552 1552 1552 1552 1552 1552 1552 1552 1553 1553 1552 1553 1553 1553 1554 1554 1554 1555 1554 1554 1554 1555 1555 1556 1557 1557 1557 1557 1557 1556 1556 1555 1555
1508 1507 1511 1514 1514 1516 1522 1523 1520 1518 1517 1515 1515 1517 1519 1519 1520 1521 1522 1523 1524 1526 1526 1526 1528 1529 1530 1530 1532 1532 1533 1535 1536 1536 1538 1539 1540 1542 1544 1544 1545 1547 1547 1548 1550 1551 1551 1552 1552 1552 1553 1552 1553 1553 1553 1553 1553 1553 1553 1553 1553 1553 1553 1553 1554 1554 1554 1555 1555 1555 1555 1555 1555 1555 1555 1555 1556 1556 1557 1557 1557 1557 1557 1556 1556 1556
1504 1502 1505 1511 1513 1514 1516 1518 1517 1517 1518 1517 1517 1519 1520 1521 1522 1522 1524 1525 1526 1527 1528 1529 1530 1530 1531 1532 1533 1533 1535 1536 1537 1538 1539 1539 1540 1542 1544 1545 1546 1547 1548 1549 1550 1551 1552 1552 1552 1553 1553 1553 1553 1553 1553 1553 1554 1554 1554 1554 1554 1554 1554 1555 1555 1555 1555 1555 1555 1555 1556 1556 1556 1556 1555 1556 1556 1556 1556 1556 1556 1556 1557 1557 1557 1557
1503 1503 1506 1510 1514 1517 1520 1520 1517 1518 1520 1519 1520 1521 1522 1523 1524 1525 1526 1527 1528 1529 1530 1530 1531 1532 1533 1533 1533 1534 1536 1537 1537 1539 1540 1540 1541 1542 1544 1546 1547 1547 1548 1549 1550 1550 1551 1552 1553 1553 1553 1553 1554 1554 1554 1554 1554 1554 1554 1555 1555 1555 1555 1556 1556 1556 1556 1556 1556 1557 1557 1557 1556 1556 1556 1556 1556 1556 1556 1556 1556 1557 1557 1558 1558 1558
1504 1505 1507 1510 1513 1516 1519 1518 1517 1519 1521 1521 1523 1524 1524 1526 1527 1527 1528 1529 1529 1530 1531 1532 1533 1533 1533 1534 1535 1536 1537 1538 1539 1539 1540 1541 1542 1543 1544 1546 1547 1548 1548 1549 1550 1550 1551 1552 1553 1553 1553 1554 1554 1554 1555 1555 1555 1555 1555 1555 1556 1556 1556 1556 1556 1557 1557 1557 1558 1558 1558 1558 1557 1556 1556 1556 1556 1556 1556 1556 1557 1558 1558 1558 1558 1558
1502 1504 1507 1510 1513 1515 1517 1517 1518 1521 1523 1523 1525 1526 1526 1527 1528 1529 1530 1531 1531 1532 1533 1533 1534 1535 1534 1535 1536 1536 1537 1539 1539 1540 1541 1542 1543 1544 1545 1547 1547 1548 1549 1550 1550 1551 1551 1552 1553 1554 1554 1554 1554 1555 1555 1555 1555 1556 1556 1556 1556 1556 1556 1557 1557 1557 1558 1558 1558 1558 1558 1558 1558 1557 1556 1556 1556 1556 1556 1557 1557 1558 1558 1558 1558 1558
1501 1505 1507 1511 1516 1518 1517 1515 1517 1521 1524 1525 1526 1527 1528 1529 1529 1530 1531 1532 1533 1534 1534 1534 1535 1536 1536 1537 1537 1537 1538 1539 1540 1541 1542 1543 1544 1545 1546 1547 1548 1549 1549 1550 1551 1551 1552 1553 1554 1554 1554 1555 1555 1555 1555 1556 1556 1556 1556 1556 1557 1556 1557 1557 1557 1557 1558 1558 1558 1558 1558 1558 1558 1557 1557 1556 1556 1557 1557 1557 1557 1557 1558 1558 1558 1557
1503 1505 1505 1509 1515 1516 1514 1514 1515 1518 1522 1524 1526 1527 1529 1529 1530 1531 1532 1533 1534 1535 1535 1536 1537 1537 1537 1538 1539 1539 1540 1540 1541 1542 1542 1543 1545 1546 1547 1548 1549 1549 1549 1550 1550 1551 1552 1553 1554 1554 1555 1555 1555 1556 1556 1556 1556 1556 1556 1557 1557 1557 1557 1557 1557 1557 1558 1558 1558 1558 1557 1558 1558 1557 1556 1556 1556 1556 1557 1557 1557 1557 1557 1557 1557 1557